Regional Weather Roundup
Issued by NWS Little Rock, AR

Home | Current Version | Previous Version | Text Only | Print | Product List | Glossary Off
Versions: 1 2 3 4 5 6 7 8 9 10 11 12 13 14 15 16 17 18 19 20 21 22 23 24 25 26 27 28 29 30 31 32 33 34 35 36 37 38 39 40 41 42 43 44 45 46 47 48 49 50

000
ASUS44 KLZK 030405
RWRLZK

WEATHER ROUNDUP FOR ARKANSAS
NATIONAL WEATHER SERVICE LITTLE ROCK AR
1100 PM CDT THU JUL 02 2015

NOTE: "FAIR" INDICATES FEW OR NO CLOUDS BELOW 12,000 FEET WITH NO
SIGNIFICANT WEATHER AND/OR OBSTRUCTIONS TO VISIBILITY.

ARZ001-003-010-029-030500-
NORTHWEST ARKANSAS

CITY           SKY/WX    TMP DP  RH WIND       PRES   REMARKS
FAYETTEVILLE   CLOUDY    68  68 100 S3        29.95S
FORT SMITH     LGT RAIN  77  73  87 S3        29.94R
HARRISON       CLOUDY    70  67  90 W3        29.95R
BENTONVILLE    MOCLDY    70  64  83 SW5       29.95S
ROGERS         MOCLDY    69  66  90 SW7       29.96R
SILOAM SPGS    CLOUDY    70  63  78 SW3         N/A
HIGHFILL       CLOUDY    69  67  93 CALM      29.94S
$$

ARZ004-005-016-030500-
NORTH CENTRAL ARKANSAS

CITY           SKY/WX    TMP DP  RH WIND       PRES   REMARKS
BATESVILLE     CLOUDY    72  70  94 E5        29.91R
FLIPPIN        CLOUDY    73  66  78 SW3       29.91R
MTN HOME       CLOUDY    72  69  90 CALM      29.92R
$$

ARZ040-041-030500-
WEST CENTRAL ARKANSAS

CITY           SKY/WX    TMP DP  RH WIND       PRES   REMARKS
MENA           CLOUDY    82  72  69 SW5       29.96F HX  87
MOUNT IDA      CLOUDY    81  69  67 CALM      29.94R
$$

ARZ009-017-025-026-028-030500-
NORTHEAST ARKANSAS

CITY           SKY/WX    TMP DP  RH WIND       PRES   REMARKS
JONESBORO      LGT RAIN  70  69  97 S6        29.91F
NEWPORT        LGT RAIN  71  71 100 E7        29.93S
WALNUT RIDGE   CLOUDY    72  68  88 SE7       29.90S
BLYTHEVILLE    TSTM      72  70  93 W7        29.90R
$$

ARZ022-023-033-042-044-030500-
CENTRAL ARKANSAS

CITY           SKY/WX    TMP DP  RH WIND       PRES   REMARKS
LITTLE ROCK    CLOUDY    83  68  60 SW9       29.92R HX  86
N LITTLE ROCK  CLOUDY    82  72  72 SW6       29.92R HX  87
JACKSONVILLE   CLOUDY    83  70  63 SW12      29.91R HX  88
SEARCY         CLOUDY    78  71  79 CALM      29.93R
HOT SPRINGS    CLOUDY    80  71  74 W6        29.95R
RUSSELLVILLE   LGT RAIN  73  71  93 W10       29.96R
CLINTON        LGT RAIN  72  72 100 CALM      29.94R
$$

ARZ036-030500-
EAST ARKANSAS

CITY           SKY/WX    TMP DP  RH WIND       PRES   REMARKS
WEST MEMPHIS   RAIN      74  69  85 N8G28     29.94R
$$

ARZ050-053-066-070-073-030500-
SOUTHWEST ARKANSAS

CITY           SKY/WX    TMP DP  RH WIND       PRES   REMARKS
ARKADELPHIA    FAIR      79  77  94 CALM      29.95R
CAMDEN         CLOUDY    79  72  78 MISG      29.95R
TEXARKANA      MOCLDY    80  73  79 SW3       29.96R
EL DORADO      CLOUDY    79  73  82 CALM      29.97R
DE QUEEN       CLOUDY    79  73  82 CALM      29.93R
$$

ARZ056-057-069-030500-
SOUTHEAST ARKANSAS

CITY           SKY/WX    TMP DP  RH WIND       PRES   REMARKS
PINE BLUFF     CLOUDY    80  72  76 SW7       29.94R
STUTTGART      CLOUDY    81  72  74 SW9       29.92R
MONTICELLO     CLOUDY    82  74  76 SW5       29.95R HX  88

$$





USA.gov is the U.S. government's official web portal to all federal, state and local government web resources and services.